Nashua, NH

11:13 PM EST on January 18, 2018 (GMT -0500)
Boire

Weather History for KASH - May, 2014

Change the Weather History Date:

Thursday, May 29, 2014

  Actual Average Record
Temperature  
Mean Temperature 52 °F -  
Max Temperature 68 °F 73 °F 91 °F (1998)
Min Temperature 37 °F 47 °F 31 °F (1956)
Degree Days  
Heating Degree Days 12    
Growing Degree Days 2 (Base 50)    
Moisture  
Dew Point 39 °F    
Average Humidity 71    
Maximum Humidity 100    
Minimum Humidity 32    
Precipitation  
Precipitation 0.01 in - - ()
Sea Level Pressure  
Sea Level Pressure 30.78 in    
Wind  
Wind Speed 1 mph (ESE)    
Max Wind Speed 10 mph    
Max Gust Speed -    
Visibility 8 miles    
Events Fog    
Averages and records for this station are not official NWS values.
T = Trace of Precipitation, MM = Missing Value Source: NWS Daily Summary

Daily Weather History Graph

Daily Weather History Graph

Search for Another Location

Airport or City:

Trip Planner

Search our weather history database for the weather conditions in past years. The results will help you decide how hot, cold, wet, or windy it might be!

Date:

Astronomy

May. 29, 2014 Rise Set
Actual Time 5:12 AM EDT 8:15 PM EDT
Civil Twilight 4:38 AM EDT 8:49 PM EDT
Nautical Twilight 3:54 AM EDT 9:32 PM EDT
Astronomical Twilight 3:03 AM EDT 10:24 PM EDT
Moon 6:04 AM EDT (5/29) 9:01 PM EDT (5/29)
Length of Visible Light 16h 11m
Length of Day
15h 03m
New Moon, 1% of the Moon is Illuminated
May 29
New Moon
Jun 5
First Quarter
Jun 13
Full
Jun 19
Last Quarter
Jun 27
New

Hourly Weather History & Observations

Time (EDT) Temp. Dew Point Humidity Pressure Visibility Wind Dir Wind Speed Gust Speed Precip Events Conditions
12:51 AM 43.0 °F 41.9 °F 96% 30.98 in 10.0 mi Calm Calm - N/A   Clear
1:51 AM 41.0 °F 39.9 °F 96% 30.97 in 10.0 mi Calm Calm - N/A   Clear
2:51 AM 39.9 °F 38.8 °F 96% 30.98 in 10.0 mi Calm Calm - N/A   Clear
3:51 AM 39.9 °F 38.8 °F 96% 30.97 in 10.0 mi Calm Calm - N/A   Clear
4:51 AM 37.9 °F 36.9 °F 96% 30.97 in 10.0 mi Calm Calm - N/A   Clear
5:51 AM 37.9 °F 36.9 °F 96% 31.00 in 10.0 mi Calm Calm - N/A   Clear
6:17 AM 39.2 °F 39.2 °F 100% 30.25 in 2.5 mi Calm Calm - N/A   Scattered Clouds
6:21 AM 39.2 °F 39.2 °F 100% 30.24 in 1.0 mi Calm Calm - N/A   Mostly Cloudy
6:23 AM 39.2 °F 39.2 °F 100% 30.24 in 0.5 mi Calm Calm - N/A Fog Fog
6:31 AM 39.2 °F 39.2 °F 100% 30.24 in 0.2 mi Calm Calm - N/A Fog Fog
6:51 AM 41.0 °F 39.9 °F 96% 31.00 in 0.2 mi Calm Calm - N/A Fog Fog
7:12 AM 42.8 °F 41.0 °F 93% 30.26 in 0.2 mi Calm Calm - N/A Fog Fog
7:25 AM 42.8 °F 42.8 °F 100% 30.26 in 0.8 mi Calm Calm - N/A   Mostly Cloudy
7:32 AM 44.6 °F 44.6 °F 100% 30.26 in 10.0 mi Calm Calm - N/A   Partly Cloudy
9:51 AM 56.8 °F 41.9 °F 57% 31.00 in 10.0 mi Calm Calm - N/A   Clear
10:51 AM 59.0 °F 38.8 °F 47% 30.99 in 10.0 mi Variable 3.5 mph - 0.01 in   Partly Cloudy
11:51 AM 61.9 °F 41.9 °F 48% 30.97 in 10.0 mi Variable 5.8 mph - N/A   Clear
12:51 PM 64.9 °F 36.9 °F 35% 30.97 in 10.0 mi East 10.4 mph - N/A   Clear
1:51 PM 65.8 °F 36.9 °F 34% 30.95 in 10.0 mi East 8.1 mph - N/A   Clear
2:51 PM 66.9 °F 36.0 °F 32% 30.94 in 10.0 mi Calm Calm - N/A   Partly Cloudy
3:51 PM 66.9 °F 36.9 °F 33% 30.92 in 10.0 mi Calm Calm - N/A   Clear
4:51 PM 68.0 °F 37.9 °F 33% 30.90 in 10.0 mi Variable 3.5 mph - N/A   Clear
5:51 PM 64.9 °F 41.0 °F 42% 30.89 in 10.0 mi SE 8.1 mph - N/A   Clear
6:51 PM 63.0 °F 41.9 °F 46% 30.90 in 10.0 mi Variable 4.6 mph - N/A   Clear
7:51 PM 59.9 °F 38.8 °F 46% 30.91 in 10.0 mi Calm Calm - N/A   Clear
8:51 PM 55.9 °F 37.9 °F 51% 30.91 in 10.0 mi Calm Calm - N/A   Clear
9:51 PM 52.9 °F 38.8 °F 59% 30.92 in 10.0 mi Calm Calm - N/A   Clear
10:51 PM 50.0 °F 38.8 °F 66% 30.91 in 10.0 mi Calm Calm - N/A   Clear
11:51 PM 47.8 °F 41.0 °F 77% 30.90 in 10.0 mi Calm Calm - N/A   Clear